Content
SEND FEEDBACK

Daily
Averages
Monthly
Summary
United States of America

DORSET, VERMONT


Home > North America > United States > Vermont
Elevation: 980 feet     Latitude: 43 15N     Longitude: 073 06W

WEATHER
 
SELECT A DAY
Number of Records: 454,845;   Date Range: 1/1/95 - 8/12/14
 
SHARE

PRINT THIS DATA

[ ← Previous Day ]
WEATHER ALMANAC - FEBRUARY 13, 2013
[ Next Day → ]
[ °C ]   °F
Weather ElementAverageHighLow
Temperature30.6 °F35.6 °F (2:35 pm)26.6 °F (7:55 pm)
Dewpoint19.6 °F23 °F (3:55 am)15.8 °F (1:15 pm)
Humidity64.3 %75 % (3:55 am)48 % (1:15 pm)
Barometer29.78 in29.83 in (12:55 am)29.72 in (6:15 pm)
Wind Speed4.7 mph11.5 mph (12:35 pm)
Weather ElementAverage
Visibility10 mi
Wind DirectionSSW (185.7 °)

Weather ElementTotal
Precipitation---
Heating Degree Days33.9 (Base 65)
Averaged from 68 records on February 13, 2013
WEATHER CONDITIONS BREAKOUT
WIND DIRECTION BREAKOUT
WEATHER BY HOUR - FEBRUARY 13, 2013
[ °C ]   °F
Local TimeTemperatureDewpointHumidityBarometerVisibilityWind DirectionWind SpeedGust SpeedPrecipitationEventsConditions
12:35 AM32.0 °F21.2 °F64 %29.82 in10.0 miNW (310°)4.6 mphOvercast
12:55 AM30.2 °F21.2 °F69 %29.83 in10.0 miNW (310°)5.8 mphOvercast
1:15 AM30.2 °F21.2 °F69 %29.83 in10.0 miWest (280°)8.1 mphOvercast
1:35 AM30.2 °F19.4 °F64 %29.82 in10.0 miWNW (290°)9.2 mphOvercast
1:55 AM30.2 °F19.4 °F64 %29.82 in10.0 miNW (310°)5.8 mphOvercast
2:15 AM30.2 °F19.4 °F64 %29.82 in10.0 miWNW (290°)5.8 mphOvercast
2:35 AM30.2 °F19.4 °F64 %29.82 in10.0 miWSW (250°)6.9 mphOvercast
2:55 AM30.2 °F19.4 °F64 %29.83 in10.0 miWest (280°)5.8 mphOvercast
3:15 AM30.2 °F19.4 °F64 %29.82 in10.0 miNW (310°)4.6 mphOvercast
3:35 AM30.2 °F19.4 °F64 %29.83 in10.0 miWest (270°)4.6 mphOvercast
3:55 AM30.2 °F23.0 °F75 %29.83 in10.0 miWest (260°)9.2 mphOvercast
4:15 AM30.2 °F21.2 °F69 %29.83 in10.0 miWSW (250°)6.9 mphOvercast
4:35 AM30.2 °F21.2 °F69 %29.83 in10.0 miWSW (250°)9.2 mphOvercast
4:55 AM30.2 °F23.0 °F75 %29.83 in10.0 miWSW (240°)3.5 mphOvercast
5:15 AM30.2 °F21.2 °F69 %29.83 in10.0 miCalmOvercast
5:35 AM30.2 °F21.2 °F69 %29.83 in10.0 miCalmOvercast
5:55 AM30.2 °F21.2 °F69 %29.82 in10.0 miCalmOvercast
6:15 AM30.2 °F21.2 °F69 %29.82 in10.0 miWest (270°)6.9 mphOvercast
6:35 AM28.4 °F21.2 °F74 %29.82 in10.0 miCalmOvercast
6:55 AM28.4 °F21.2 °F74 %29.82 in10.0 miWest (260°)3.5 mphOvercast
7:15 AM28.4 °F21.2 °F74 %29.82 in10.0 miWSW (240°)4.6 mphMostly Cloudy
7:35 AM28.4 °F21.2 °F74 %29.83 in10.0 miWSW (240°)3.5 mphMostly Cloudy
7:55 AM28.4 °F21.2 °F74 %29.83 in10.0 miCalmOvercast
8:15 AM30.2 °F21.2 °F69 %29.83 in10.0 miWest (260°)3.5 mphOvercast
8:35 AM30.2 °F21.2 °F69 %29.83 in10.0 miWSW (250°)4.6 mphOvercast
8:55 AM30.2 °F21.2 °F69 %29.83 in10.0 miWSW (250°)9.2 mphOvercast
9:15 AM30.2 °F23.0 °F75 %29.83 in10.0 miWest (260°)9.2 mphMostly Cloudy
9:35 AM32.0 °F21.2 °F64 %29.82 in10.0 miWNW (290°)8.1 mphOvercast
9:55 AM32.0 °F21.2 °F64 %29.82 in10.0 miWNW (290°)5.8 mphOvercast
10:15 AM32.0 °F21.2 °F64 %29.82 in10.0 miWest (280°)8.1 mphOvercast
10:55 AM33.8 °F19.4 °F56 %29.81 in10.0 miWest (270°)4.6 mphOvercast
11:15 AM33.8 °F19.4 °F56 %29.81 in10.0 miWest (270°)6.9 mphOvercast
11:35 AM33.8 °F19.4 °F56 %29.80 in10.0 miWNW (290°)6.9 mphMostly Cloudy
11:55 AM33.8 °F19.4 °F56 %29.79 in10.0 miSW (230°)3.5 mphMostly Cloudy
12:15 PM33.8 °F19.4 °F56 %29.78 in10.0 miWest (270°)8.1 mphOvercast
12:35 PM33.8 °F19.4 °F56 %29.78 in10.0 miWSW (240°)11.5 mphOvercast
12:55 PM33.8 °F17.6 °F52 %29.78 in10.0 miWSW (250°)4.6 mphOvercast
1:15 PM33.8 °F15.8 °F48 %29.78 in10.0 miCalmOvercast
1:35 PM33.8 °F15.8 °F48 %29.77 in10.0 miWest (270°)4.6 mphOvercast
1:55 PM33.8 °F17.6 °F52 %29.76 in10.0 miWest (260°)3.5 mphOvercast
2:35 PM35.6 °F17.6 °F48 %29.75 in10.0 miWSW (250°)9.2 mphOvercast
2:55 PM33.8 °F17.6 °F52 %29.75 in10.0 miSW (230°)8.1 mphOvercast
3:15 PM33.8 °F19.4 °F56 %29.74 in10.0 miWest (270°)4.6 mphOvercast
3:35 PM33.8 °F19.4 °F56 %29.74 in10.0 miWest (260°)5.8 mphOvercast
3:55 PM33.8 °F19.4 °F56 %29.74 in10.0 miSSW (210°)4.6 mphOvercast
4:15 PM33.8 °F19.4 °F56 %29.74 in10.0 miSW (230°)4.6 mphOvercast
4:35 PM33.8 °F19.4 °F56 %29.75 in10.0 miWSW (250°)8.1 mphOvercast
4:55 PM33.8 °F19.4 °F56 %29.74 in10.0 miSW (230°)3.5 mphOvercast
5:15 PM33.8 °F19.4 °F56 %29.74 in10.0 miCalmOvercast
5:35 PM33.8 °F19.4 °F56 %29.73 in10.0 miCalmOvercast
5:55 PM32.0 °F19.4 °F60 %29.73 in10.0 miEast (80°)3.5 mphOvercast
6:15 PM30.2 °F19.4 °F64 %29.72 in10.0 miCalmMostly Cloudy
6:35 PM28.4 °F19.4 °F69 %29.72 in10.0 miCalmPartly Cloudy
6:55 PM28.4 °F19.4 °F69 %29.73 in10.0 miSSE (150°)4.6 mphClear
7:15 PM28.4 °F19.4 °F69 %29.74 in10.0 miCalmClear
7:35 PM28.4 °F19.4 °F69 %29.73 in10.0 miSE (140°)4.6 mphClear
7:55 PM26.6 °F19.4 °F74 %29.73 in10.0 miCalmClear
8:15 PM28.4 °F17.6 °F64 %29.73 in10.0 miCalmClear
8:35 PM28.4 °F19.4 °F69 %29.74 in10.0 miSE (140°)5.8 mphClear
8:55 PM26.6 °F19.4 °F74 %29.75 in10.0 miSouth (180°)3.5 mphClear
9:35 PM26.6 °F17.6 °F69 %29.74 in10.0 miSE (140°)5.8 mphClear
9:55 PM26.6 °F17.6 °F69 %29.74 in10.0 miSE (130°)6.9 mphClear
10:15 PM26.6 °F17.6 °F69 %29.74 in10.0 miESE (120°)5.8 mphClear
10:35 PM26.6 °F17.6 °F69 %29.73 in10.0 miESE (120°)5.8 mphClear
10:55 PM26.6 °F17.6 °F69 %29.73 in10.0 miSE (130°)6.9 mphClear
11:15 PM26.6 °F17.6 °F69 %29.73 in10.0 miESE (120°)4.6 mphClear
11:35 PM26.6 °F17.6 °F69 %29.72 in10.0 miCalmClear
11:55 PM26.6 °F17.6 °F69 %29.72 in10.0 miESE (110°)3.5 mphClear
Hourly data recorded from KRUT, located miles away from Dorset, Vermont







STORIES FROM OUR PARTNERS